Weather History for Greenville, NC

Change the Weather History Date:

Thursday, January 24, 2013

  Actual Average Record
Temperature  
Mean Temperature 27 °F -  
Max Temperature 37 °F 56 °F 76 °F (1974)
Min Temperature 17 °F 32 °F 14 °F (1963)
Degree Days  
Heating Degree Days 38    
Moisture  
Dew Point 16 °F    
Average Humidity 55    
Maximum Humidity 81    
Minimum Humidity 30    
Precipitation  
Precipitation 0.00 in - - ()
Sea Level Pressure  
Sea Level Pressure 30.28 in    
Wind  
Wind Speed 10 mph (NNW)    
Max Wind Speed 26 mph    
Max Gust Speed 37 mph    
Visibility 10 miles    
Events      
Averages and records for this station are not official NWS values.
T = Trace of Precipitation, MM = Missing Value Source: NWS Daily Summary

Daily Weather History Graph

Daily Weather History Graph

Search for Another Location

Airport:

Trip Planner

Search our weather history database for the weather conditions in past years. The results will help you decide how hot, cold, wet, or windy it might be!

Date:

Astronomy

Jan. 24, 2013 Rise Set
Actual Time 7:14 AM EST 5:29 PM EST
Civil Twilight 6:47 AM EST 5:56 PM EST
Nautical Twilight 6:16 AM EST 6:27 PM EST
Astronomical Twilight 5:46 AM EST 6:57 PM EST
Moon 3:30 PM EST (1/24) 5:09 AM EST (1/24)
Length of Visible Light 11h 08m
Length of Day
10h 14m
Waxing Gibbous, 94% of the Moon is Illuminated
Jan 24
Waxing Gibbous
Jan 26
Full
Feb 3
Last Quarter
Feb 10
New
Feb 17
First Quarter

Hourly Weather History & Observations

Time (EST) Temp. Windchill Dew Point Humidity Pressure Visibility Wind Dir Wind Speed Gust Speed Precip Events Conditions
12:15 AM 32.0 °F 24.2 °F 19.4 °F 60% 30.11 in 10.0 mi SSW 9.2 mph - N/A   Clear
12:35 AM 32.0 °F 24.8 °F 19.4 °F 60% 30.10 in 10.0 mi SSW 8.1 mph - N/A   Clear
12:55 AM 32.0 °F 24.2 °F 19.4 °F 60% 30.08 in 10.0 mi SSW 9.2 mph - N/A   Clear
1:15 AM 33.8 °F 26.4 °F 19.4 °F 56% 30.07 in 10.0 mi SSW 9.2 mph - N/A   Clear
1:35 AM 33.8 °F 27.0 °F 21.2 °F 60% 30.05 in 10.0 mi SSW 8.1 mph - N/A   Clear
1:55 AM 33.8 °F 26.4 °F 21.2 °F 60% 30.04 in 10.0 mi SSW 9.2 mph - N/A   Clear
2:15 AM 33.8 °F 27.0 °F 21.2 °F 60% 30.04 in 10.0 mi SSW 8.1 mph - N/A   Clear
2:35 AM 33.8 °F 27.0 °F 23.0 °F 65% 30.03 in 10.0 mi SW 8.1 mph - N/A   Clear
2:55 AM 33.8 °F 27.0 °F 23.0 °F 65% 30.02 in 10.0 mi SW 8.1 mph - N/A   Clear
3:15 AM 33.8 °F 27.0 °F 24.8 °F 70% 30.02 in 10.0 mi SW 8.1 mph - N/A   Clear
3:35 AM 33.8 °F 28.6 °F 26.6 °F 75% 30.01 in 10.0 mi SW 5.8 mph - N/A   Clear
3:55 AM 33.8 °F 27.7 °F 26.6 °F 75% 30.00 in 10.0 mi WSW 6.9 mph - N/A   Clear
4:15 AM 35.6 °F 29.2 °F 28.4 °F 75% 30.00 in 10.0 mi WSW 8.1 mph - N/A   Clear
4:35 AM 35.6 °F 29.9 °F 28.4 °F 75% 29.99 in 10.0 mi WSW 6.9 mph - N/A   Clear
4:55 AM 35.6 °F 29.2 °F 28.4 °F 75% 29.99 in 10.0 mi WSW 8.1 mph - N/A   Clear
5:15 AM 35.6 °F 29.9 °F 28.4 °F 75% 29.99 in 10.0 mi WSW 6.9 mph - N/A   Clear
5:35 AM 35.6 °F 29.2 °F 28.4 °F 75% 29.98 in 10.0 mi WSW 8.1 mph - N/A   Scattered Clouds
5:55 AM 35.6 °F 28.6 °F 28.4 °F 75% 30.00 in 10.0 mi WSW 9.2 mph - N/A   Scattered Clouds
6:15 AM 37.4 °F 32.8 °F 28.4 °F 70% 30.00 in 10.0 mi West 5.8 mph - N/A   Mostly Cloudy
6:35 AM 35.6 °F 28.0 °F 28.4 °F 75% 30.04 in 10.0 mi North 10.4 mph - N/A   Overcast
6:55 AM 33.8 °F 26.4 °F 28.4 °F 81% 30.06 in 10.0 mi NNW 9.2 mph - N/A   Overcast
7:15 AM 33.8 °F 27.7 °F 26.6 °F 75% 30.08 in 10.0 mi NNW 6.9 mph - N/A   Overcast
7:35 AM 33.8 °F 26.4 °F 26.6 °F 75% 30.09 in 10.0 mi North 9.2 mph - N/A   Scattered Clouds
7:55 AM 33.8 °F 27.7 °F 23.0 °F 65% 30.11 in 10.0 mi North 6.9 mph - N/A   Mostly Cloudy
8:15 AM 33.8 °F 26.4 °F 23.0 °F 65% 30.12 in 10.0 mi North 9.2 mph - N/A   Mostly Cloudy
8:35 AM 33.8 °F 24.3 °F 21.2 °F 60% 30.14 in 10.0 mi North 13.8 mph 17.3 mph N/A   Mostly Cloudy
8:55 AM 33.8 °F 23.9 °F 21.2 °F 60% 30.16 in 10.0 mi North 15.0 mph 20.7 mph N/A   Mostly Cloudy
9:15 AM 33.8 °F 25.8 °F 19.4 °F 56% 30.18 in 10.0 mi North 10.4 mph 25.3 mph N/A   Scattered Clouds
9:35 AM 33.8 °F 23.5 °F 19.4 °F 56% 30.20 in 10.0 mi North 16.1 mph 24.2 mph N/A   Mostly Cloudy
9:55 AM 35.6 °F 25.5 °F 19.4 °F 52% 30.21 in 10.0 mi North 17.3 mph 28.8 mph N/A   Mostly Cloudy
10:15 AM 35.6 °F 25.5 °F 19.4 °F 52% 30.23 in 10.0 mi North 17.3 mph 25.3 mph N/A   Mostly Cloudy
10:35 AM 35.6 °F 24.5 °F 19.4 °F 52% 30.25 in 10.0 mi North 20.7 mph 28.8 mph N/A   Overcast
10:55 AM 35.6 °F 25.5 °F 17.6 °F 48% 30.26 in 10.0 mi North 17.3 mph 29.9 mph N/A   Mostly Cloudy
11:15 AM 35.6 °F 24.8 °F 17.6 °F 48% 30.27 in 10.0 mi North 19.6 mph 28.8 mph N/A   Mostly Cloudy
11:35 AM 35.6 °F 25.5 °F 15.8 °F 44% 30.27 in 10.0 mi North 17.3 mph 27.6 mph N/A   Mostly Cloudy
11:55 AM 35.6 °F 25.5 °F 14.0 °F 41% 30.28 in 10.0 mi North 17.3 mph 27.6 mph N/A   Scattered Clouds
12:15 PM 35.6 °F 23.2 °F 14.0 °F 41% 30.29 in 10.0 mi North 26.5 mph 32.2 mph N/A   Clear
12:35 PM 33.8 °F 22.5 °F 14.0 °F 44% 30.31 in 10.0 mi North 19.6 mph 26.5 mph N/A   Scattered Clouds
12:55 PM 33.8 °F 21.0 °F 14.0 °F 44% 30.32 in 10.0 mi North 25.3 mph 32.2 mph N/A   Scattered Clouds
1:15 PM 32.0 °F 18.6 °F 12.2 °F 44% 30.33 in 10.0 mi North 25.3 mph 34.5 mph N/A   Clear
1:35 PM 32.0 °F 19.8 °F 10.4 °F 41% 30.33 in 10.0 mi North 20.7 mph 36.8 mph N/A   Clear
1:55 PM 33.8 °F 21.6 °F 10.4 °F 38% 30.35 in 10.0 mi North 23.0 mph 29.9 mph N/A   Clear
2:15 PM 33.8 °F 21.6 °F 8.6 °F 35% 30.36 in 10.0 mi NNE 23.0 mph 29.9 mph N/A   Scattered Clouds
2:35 PM 33.8 °F 23.9 °F 8.6 °F 35% 30.37 in 10.0 mi North 15.0 mph 26.5 mph N/A   Clear
2:55 PM 33.8 °F 21.9 °F 5.0 °F 30% 30.38 in 10.0 mi North 21.9 mph 32.2 mph N/A   Clear
3:15 PM 32.0 °F 20.8 °F 3.2 °F 30% 30.39 in 10.0 mi North 17.3 mph 27.6 mph N/A   Clear
3:35 PM 32.0 °F 21.2 °F 5.0 °F 32% 30.41 in 10.0 mi North 16.1 mph 29.9 mph N/A   Scattered Clouds
3:55 PM 32.0 °F 21.6 °F 5.0 °F 32% 30.42 in 10.0 mi NNE 15.0 mph 24.2 mph N/A   Clear
4:15 PM 32.0 °F 21.2 °F 5.0 °F 32% 30.43 in 10.0 mi NNE 16.1 mph 21.9 mph N/A   Clear
4:35 PM 32.0 °F 20.8 °F 5.0 °F 32% 30.44 in 10.0 mi North 17.3 mph 21.9 mph N/A   Clear
4:55 PM 30.2 °F 18.9 °F 5.0 °F 34% 30.45 in 10.0 mi North 16.1 mph 20.7 mph N/A   Clear
5:15 PM 30.2 °F 21.9 °F 3.2 °F 32% 30.47 in 10.0 mi NNE 9.2 mph - N/A   Clear
5:35 PM 28.4 °F 19.7 °F 5.0 °F 37% 30.48 in 10.0 mi North 9.2 mph - N/A   Clear
5:55 PM 28.4 °F 20.4 °F 5.0 °F 37% 30.48 in 10.0 mi North 8.1 mph - N/A   Clear
6:15 PM 26.6 °F 19.1 °F 5.0 °F 40% 30.48 in 10.0 mi North 6.9 mph - N/A   Clear
6:35 PM 26.6 °F 22.6 °F 6.8 °F 43% 30.50 in 10.0 mi NNE 3.5 mph - N/A   Clear
6:55 PM 24.8 °F 20.5 °F 8.6 °F 50% 30.50 in 10.0 mi NNE 3.5 mph - N/A   Clear
7:15 PM 24.8 °F 19.1 °F 8.6 °F 50% 30.50 in 10.0 mi NNE 4.6 mph - N/A   Clear
7:35 PM 24.8 °F 20.5 °F 8.6 °F 50% 30.51 in 10.0 mi NNE 3.5 mph - N/A   Clear
7:55 PM 23.0 °F 18.4 °F 8.6 °F 54% 30.52 in 10.0 mi North 3.5 mph - N/A   Clear
8:15 PM 24.8 °F - 8.6 °F 50% 30.52 in 10.0 mi Calm Calm - N/A   Clear
8:35 PM 23.0 °F - 8.6 °F 54% 30.52 in 10.0 mi Calm Calm - N/A   Clear
8:55 PM 23.0 °F 18.4 °F 8.6 °F 54% 30.53 in 10.0 mi NNE 3.5 mph - N/A   Clear
9:15 PM 21.2 °F 16.4 °F 10.4 °F 63% 30.53 in 10.0 mi NNE 3.5 mph - N/A   Clear
9:35 PM 21.2 °F - 10.4 °F 63% 30.53 in 10.0 mi Calm Calm - N/A   Clear
9:55 PM 23.0 °F - 8.6 °F 54% 30.54 in 10.0 mi Calm Calm - N/A   Clear
10:15 PM 23.0 °F - 8.6 °F 54% 30.53 in 10.0 mi Calm Calm - N/A   Clear
10:35 PM 21.2 °F - 10.4 °F 63% 30.53 in 10.0 mi Calm Calm - N/A   Clear
10:55 PM 19.4 °F - 10.4 °F 68% 30.54 in 10.0 mi Calm Calm - N/A   Clear
11:15 PM 19.4 °F - 8.6 °F 63% 30.54 in 10.0 mi Calm Calm - N/A   Clear
11:35 PM 17.6 °F 12.3 °F 10.4 °F 73% 30.53 in 10.0 mi NE 3.5 mph - N/A   Clear
11:55 PM 19.4 °F 14.3 °F 10.4 °F 68% 30.53 in 10.0 mi NE 3.5 mph - N/A   Clear